Location: Sternwarte ZA, Rosenfeld-Brittheim
(48.2889°N, 8.6789°E)
Time: 06:09:01
(UTC+02:00)

ISS - Pass Details

Date: 22 September 2020
Orbit: 419 x 420 km, 51.6° (Epoch: 21 September)

Event Time Altitude Azimuth Distance (km) Brightness Sun altitude
Rises 21:41:08 0° 271° (W) 2,366 1.1 -23.0°
Reaches altitude 10° 21:43:17 10° 278° (W) 1,503 0.0 -23.3°
Enters shadow 21:45:57 41° 318° (NW) 621 -2.5 -23.7°
